Weather History for Coatesville, PA

Change the Weather History Date:

Wednesday, May 8, 2013

  Actual Average (KLNS) Record (KLNS)
Temperature  
Mean Temperature 63 °F -  
Max Temperature 71 °F 70 °F 89 °F (2000)
Min Temperature 55 °F 46 °F 33 °F (1981)
Degree Days  
Heating Degree Days 2    
Growing Degree Days 13 (Base 50)    
Moisture  
Dew Point 56 °F    
Average Humidity 83    
Maximum Humidity 100    
Minimum Humidity 46    
Precipitation  
Precipitation 0.23 in - - ()
Sea Level Pressure  
Sea Level Pressure 30.00 in    
Wind  
Wind Speed 6 mph (SSE)    
Max Wind Speed 12 mph    
Max Gust Speed 18 mph    
Visibility 8 miles    
Events Rain    
Averages and records for this station are not official NWS values.
T = Trace of Precipitation, MM = Missing Value Source: NWS Daily Summary

Daily Weather History Graph

Daily Weather History Graph

Search for Another Location

Airport:

Trip Planner

Search our weather history database for the weather conditions in past years. The results will help you decide how hot, cold, wet, or windy it might be!

Date:

Astronomy

May. 08, 2013 Rise Set
Actual Time 5:55 AM EDT 8:05 PM EDT
Civil Twilight 5:25 AM EDT 8:35 PM EDT
Nautical Twilight 4:48 AM EDT 9:12 PM EDT
Astronomical Twilight 4:08 AM EDT 9:52 PM EDT
Moon 5:01 AM EDT (5/8) 7:01 PM EDT (5/8)
Length of Visible Light 15h 10m
Length of Day
14h 10m
Waning Crescent, 2% of the Moon is Illuminated
May 8
Waning Crescent
May 9
New
May 18
First Quarter
May 25
Full
May 31
Last Quarter

Hourly Weather History & Observations

Time (EDT) Temp. Dew Point Humidity Pressure Visibility Wind Dir Wind Speed Gust Speed Precip Events Conditions
12:15 AM 59.0 °F 59.0 °F 100% 30.06 in 7.0 mi East 11.5 mph 17.3 mph 0.03 in   Overcast
12:35 AM 59.0 °F 59.0 °F 100% 30.06 in 5.0 mi East 10.4 mph - 0.03 in   Overcast
12:55 AM 59.0 °F 59.0 °F 100% 30.05 in 7.0 mi East 11.5 mph - 0.03 in   Overcast
1:15 AM 59.0 °F 59.0 °F 100% 30.05 in 10.0 mi ESE 8.1 mph 18.4 mph N/A   Overcast
1:35 AM 59.0 °F 59.0 °F 100% 30.04 in 8.0 mi ESE 8.1 mph - N/A   Overcast
1:55 AM 59.0 °F 59.0 °F 100% 30.04 in 6.0 mi ESE 10.4 mph 16.1 mph N/A   Overcast
2:15 AM 59.0 °F 57.2 °F 94% 30.04 in 3.0 mi ESE 8.1 mph - N/A   Overcast
2:35 AM 59.0 °F 57.2 °F 94% 30.03 in 1.0 mi SE 5.8 mph - N/A   Overcast
2:55 AM 57.2 °F 57.2 °F 100% 30.02 in 3.0 mi East 5.8 mph - N/A   Light Drizzle
3:15 AM 57.2 °F 57.2 °F 100% 30.02 in 5.0 mi East 6.9 mph - N/A   Overcast
3:35 AM 57.2 °F 57.2 °F 100% 30.02 in 5.0 mi Calm Calm - N/A   Overcast
3:55 AM 57.2 °F 57.2 °F 100% 30.01 in 2.5 mi Calm Calm - 0.02 in Rain Rain
4:15 AM 57.2 °F 57.2 °F 100% 30.01 in 5.0 mi East 10.4 mph - N/A Rain Light Rain
4:35 AM 57.2 °F 57.2 °F 100% 30.01 in 5.0 mi ENE 5.8 mph - 0.03 in   Overcast
4:55 AM 57.2 °F 57.2 °F 100% 30.01 in 4.0 mi Calm Calm - 0.04 in   Overcast
5:15 AM 57.2 °F 57.2 °F 100% 30.01 in 3.0 mi Calm Calm - N/A   Overcast
5:35 AM 57.2 °F 57.2 °F 100% 30.01 in 1.8 mi Calm Calm - N/A   Light Drizzle
5:55 AM 57.2 °F 57.2 °F 100% 30.01 in 2.0 mi Calm Calm - 0.01 in   Overcast
6:15 AM 57.2 °F 57.2 °F 100% 30.01 in 3.0 mi ENE 4.6 mph - N/A   Overcast
6:35 AM 57.2 °F 57.2 °F 100% 30.01 in 2.5 mi Calm Calm - N/A   Overcast
6:55 AM 57.2 °F 57.2 °F 100% 30.01 in 1.8 mi NNE 3.5 mph - N/A   Mostly Cloudy
7:15 AM 57.2 °F 57.2 °F 100% 30.01 in 3.0 mi NNE 3.5 mph - N/A   Mostly Cloudy
7:35 AM 59.0 °F 59.0 °F 100% 30.02 in 8.0 mi Calm Calm - N/A   Overcast
7:55 AM 59.0 °F 59.0 °F 100% 30.02 in 9.0 mi Calm Calm - N/A   Overcast
8:15 AM 59.0 °F 59.0 °F 100% 30.01 in 8.0 mi NNE 3.5 mph - N/A   Overcast
8:35 AM 60.8 °F 59.0 °F 94% 30.01 in 9.0 mi NNE 3.5 mph - N/A   Overcast
8:55 AM 60.8 °F 60.8 °F 100% 30.02 in 10.0 mi Calm Calm - N/A   Overcast
9:15 AM 60.8 °F 60.8 °F 100% 30.01 in 10.0 mi ESE 3.5 mph - N/A   Overcast
9:35 AM 60.8 °F 60.8 °F 100% 30.00 in 5.0 mi Calm Calm - N/A   Overcast
9:55 AM 60.8 °F 60.8 °F 100% 30.00 in 8.0 mi SE 3.5 mph - N/A   Overcast
10:15 AM 62.6 °F 60.8 °F 94% 30.01 in 10.0 mi East 4.6 mph - N/A   Overcast
10:35 AM 62.6 °F 60.8 °F 94% 30.02 in 10.0 mi SE 3.5 mph - N/A   Overcast
10:55 AM 62.6 °F 60.8 °F 94% 30.02 in 10.0 mi ESE 3.5 mph - N/A   Overcast
11:15 AM 62.6 °F 60.8 °F 94% 30.02 in 9.0 mi SE 3.5 mph - N/A   Overcast
11:35 AM 62.6 °F 60.8 °F 94% 30.02 in 4.0 mi South 3.5 mph - N/A Rain Light Rain
11:55 AM 64.4 °F 60.8 °F 88% 30.01 in 10.0 mi South 3.5 mph - N/A   Mostly Cloudy
12:15 PM 64.4 °F 59.0 °F 83% 30.01 in 10.0 mi SSW 5.8 mph - N/A   Mostly Cloudy
12:35 PM 66.2 °F 60.8 °F 83% 30.01 in 10.0 mi SSE 4.6 mph - N/A   Mostly Cloudy
12:55 PM 66.2 °F 57.2 °F 73% 30.00 in 10.0 mi SSW 5.8 mph - N/A   Mostly Cloudy
1:15 PM 68.0 °F 57.2 °F 68% 30.00 in 10.0 mi South 6.9 mph - N/A   Mostly Cloudy
1:35 PM 68.0 °F 57.2 °F 68% 30.00 in 10.0 mi SSW 5.8 mph - N/A   Mostly Cloudy
1:55 PM 69.8 °F 53.6 °F 56% 29.99 in 10.0 mi SSE 6.9 mph - N/A   Mostly Cloudy
2:15 PM 71.6 °F 51.8 °F 50% 29.99 in 10.0 mi SW 4.6 mph - N/A   Scattered Clouds
2:35 PM 69.8 °F 51.8 °F 53% 29.99 in 10.0 mi SSE 5.8 mph - N/A   Partly Cloudy
2:55 PM 71.6 °F 50.0 °F 46% 29.98 in 10.0 mi SSW 9.2 mph - N/A   Scattered Clouds
3:15 PM 69.8 °F 50.0 °F 49% 29.97 in 10.0 mi SSW 4.6 mph - N/A   Partly Cloudy
3:35 PM 69.8 °F 51.8 °F 53% 29.96 in 10.0 mi SW 5.8 mph - N/A   Partly Cloudy
3:55 PM 71.6 °F 51.8 °F 50% 29.95 in 10.0 mi SSW 4.6 mph - N/A   Scattered Clouds
4:15 PM 69.8 °F 50.0 °F 49% 29.95 in 10.0 mi SSE 3.5 mph - N/A   Partly Cloudy
4:35 PM 71.6 °F 50.0 °F 46% 29.95 in 10.0 mi South 4.6 mph - N/A   Partly Cloudy
4:55 PM 71.6 °F 51.8 °F 50% 29.95 in 10.0 mi SW 6.9 mph - N/A   Scattered Clouds
5:15 PM 71.6 °F 50.0 °F 46% 29.95 in 10.0 mi SSW 5.8 mph - N/A   Mostly Cloudy
5:35 PM 71.6 °F 50.0 °F 46% 29.95 in 10.0 mi SW 6.9 mph - N/A   Scattered Clouds
5:55 PM 68.0 °F 51.8 °F 56% 29.96 in 10.0 mi SE 9.2 mph - N/A   Scattered Clouds
6:15 PM 66.2 °F 53.6 °F 64% 29.95 in 10.0 mi SE 5.8 mph - N/A   Clear
6:35 PM 66.2 °F 53.6 °F 64% 29.95 in 10.0 mi South 4.6 mph - N/A   Clear
6:55 PM 66.2 °F 48.2 °F 52% 29.96 in 10.0 mi SSW 5.8 mph - N/A   Clear
7:15 PM 66.2 °F 48.2 °F 52% 29.97 in 10.0 mi SW 4.6 mph - N/A   Clear
7:35 PM 66.2 °F 50.0 °F 56% 29.97 in 9.0 mi South 4.6 mph - N/A Rain Light Rain
7:55 PM 62.6 °F 55.4 °F 77% 29.98 in 10.0 mi SE 4.6 mph - 0.01 in   Overcast
8:15 PM 60.8 °F 55.4 °F 82% 29.98 in 10.0 mi South 3.5 mph - N/A   Mostly Cloudy
8:35 PM 60.8 °F 55.4 °F 82% 29.99 in 10.0 mi Calm Calm - N/A   Mostly Cloudy
8:55 PM 60.8 °F 55.4 °F 82% 30.00 in 10.0 mi Calm Calm - N/A   Scattered Clouds
9:15 PM 59.0 °F 55.4 °F 88% 30.01 in 10.0 mi SSE 5.8 mph - N/A   Partly Cloudy
9:35 PM 59.0 °F 55.4 °F 88% 30.02 in 10.0 mi SSE 4.6 mph - N/A   Mostly Cloudy
9:55 PM 57.2 °F 55.4 °F 94% 30.02 in 8.0 mi South 5.8 mph - N/A Rain Rain
10:15 PM 57.2 °F 55.4 °F 94% 30.02 in 3.0 mi SE 3.5 mph - 0.04 in Rain Rain
10:55 PM 55.4 °F 53.6 °F 94% 30.01 in 10.0 mi Calm Calm - 0.09 in   Overcast
11:15 PM 55.4 °F 53.6 °F 94% 30.00 in 6.0 mi Calm Calm - 0.02 in Rain Rain
11:35 PM 55.4 °F 55.4 °F 100% 30.00 in 10.0 mi Calm Calm - 0.03 in   Overcast
11:55 PM 55.4 °F 55.4 °F 100% 29.99 in 10.0 mi Calm Calm - 0.03 in   Mostly Cloudy